Flag Weather past 2 weeks in San Diego, California, U.S.A.

Now
70 °F

More clouds than sun.


Feels Like: 75 °F
Forecast: 65 / 70 °F
Wind: 8 mph from Northwest

Location: San Diego - North Island

Current Time: Oct 31, 2014 at 2:02:03 PM

Latest Report: Oct 31, 2014 at 12:52 PM


Visibility: 10 mi

Pressure: 29.90 "Hg

Humidity: 66%

Dew point: 58 °F

Location of San DiegoLocation

Historic Weather in San Diego — Graph

°F

San Diego temperature yesterday

Maximum temperature yesterday: 74 °F (at 2:52 PM)
Minimum temperature yesterday: 62 °F (at 12:52 AM)
Average temperature yesterday: 67 °F

Past Weeks' High & Low Weather Summary

 TemperatureHumidityPressure
High83 °F (Oct 24, 2:52 PM)97% (Oct 23, 3:52 AM)30.06 "Hg (Oct 23, 3:52 AM)
Low59 °F (Oct 27, 4:52 AM)29% (Oct 24, 10:52 AM)29.83 "Hg (Oct 21, 3:52 PM)
Average69 °F75%29.93 "Hg
* Reported Oct 16 12:52 PM — Oct 31 12:52 PM, San Diego, Weather by CustomWeather, © 2014

Note: Actual official high and low records may vary slightly from our data, if they occured in-between our weather recording intervals... More about our weather records

Advertising

San Diego weather history for previous 24 hours

 ConditionsComfort  
Time TempWeatherWind HumidityBarometerVisibility
12:52 PM
Oct 31
70 °FMore clouds than sun.8 mph66%29.90 "Hg10 mi
11:52 AM70 °FMore clouds than sun.7 mph66%29.94 "Hg10 mi
10:52 AM70 °FBroken clouds.7 mph71%29.96 "Hg10 mi
9:52 AM70 °FBroken clouds.7 mph71%29.96 "Hg10 mi
8:52 AM69 °FBroken clouds.No wind73%29.96 "Hg10 mi
7:52 AM68 °FPartly cloudy.No wind82%29.96 "Hg9 mi
6:52 AM68 °FPassing clouds.3 mph82%29.94 "Hg9 mi
5:52 AM68 °FPassing clouds.3 mph82%29.94 "Hg9 mi
4:52 AM68 °FPartly cloudy.No wind82%29.94 "Hg9 mi
3:52 AM68 °FPartly cloudy.No wind84%29.93 "Hg9 mi
2:52 AM68 °FPassing clouds.3 mph87%29.95 "Hg9 mi
1:52 AM67 °FPassing clouds.6 mph90%29.95 "Hg9 mi
12:52 AM64 °FPartly cloudy.No wind94%29.96 "Hg10 mi
11:52 PM
Oct 30
65 °FPassing clouds.No wind87%29.96 "Hg10 mi
10:52 PM67 °FPassing clouds.No wind85%29.97 "Hg9 mi
9:52 PM68 °FPartly cloudy.3 mph84%29.96 "Hg9 mi
8:52 PM68 °FPartly cloudy.5 mph84%29.96 "Hg10 mi
7:52 PM68 °FPartly cloudy.No wind82%29.94 "Hg10 mi
6:52 PM69 °FBroken clouds.3 mph79%29.94 "Hg10 mi
5:52 PM70 °FBroken clouds.6 mph76%29.93 "Hg10 mi
4:52 PM71 °FPartly sunny.10 mph73%29.94 "Hg10 mi
3:52 PM72 °FBroken clouds.8 mph73%29.93 "Hg10 mi
2:52 PM74 °FBroken clouds.8 mph69%29.93 "Hg10 mi
Weather by CustomWeather, © 2014

See weather overviewHow to use our weather pages